Time,TemperatureF,DewpointF,PressureIn,WindDirection,WindDirectionDegrees,WindSpeedMPH,WindSpeedGustMPH,Humidity,HourlyPrecipIn,Conditions,Clouds,dailyrainin,SolarRadiationWatts/m^2,SoftwareType,DateUTC
2013-03-31 00:26:00,39.3,38.0,29.85,WSW,252,6.0,7.0,96,0.00,,,0.00,0,weatherlink.com 1.10,2013-03-31 05:26:00,
2013-03-31 00:41:00,39.7,39.0,29.84,WNW,292,8.0,9.0,97,0.00,,,0.00,0,weatherlink.com 1.10,2013-03-31 05:41:00,
2013-03-31 00:56:00,39.1,38.0,29.84,WNW,287,7.0,11.0,97,0.00,,,0.00,0,weatherlink.com 1.10,2013-03-31 05:56:00,
2013-03-31 01:11:00,38.7,38.0,29.84,WNW,295,4.0,9.0,97,0.00,,,0.00,0,weatherlink.com 1.10,2013-03-31 06:11:00,
2013-03-31 01:26:00,38.6,38.0,29.84,West,266,5.0,8.0,97,0.00,,,0.00,0,weatherlink.com 1.10,2013-03-31 06:26:00,
2013-03-31 01:41:00,38.3,38.0,29.83,West,267,5.0,9.0,97,0.00,,,0.00,0,weatherlink.com 1.10,2013-03-31 06:41:00,
2013-03-31 01:56:00,38.2,38.0,29.83,West,266,6.0,10.0,97,0.00,,,0.00,0,weatherlink.com 1.10,2013-03-31 06:56:00,
2013-03-31 02:11:00,37.9,37.0,29.83,WSW,257,6.0,8.0,97,0.00,,,0.00,0,weatherlink.com 1.10,2013-03-31 07:11:00,
2013-03-31 02:26:00,37.7,37.0,29.83,West,275,6.0,9.0,97,0.00,,,0.00,0,weatherlink.com 1.10,2013-03-31 07:26:00,
2013-03-31 02:41:00,37.8,37.0,29.82,West,260,5.0,9.0,97,0.00,,,0.00,0,weatherlink.com 1.10,2013-03-31 07:41:00,
2013-03-31 02:57:00,37.3,36.0,29.82,West,269,5.0,7.0,96,0.00,,,0.00,0,weatherlink.com 1.10,2013-03-31 07:57:00,
2013-03-31 03:12:00,37.2,36.0,29.81,WSW,252,4.0,9.0,96,0.00,,,0.00,0,weatherlink.com 1.10,2013-03-31 08:12:00,
2013-03-31 03:27:00,36.5,35.0,29.81,West,259,5.0,7.0,95,0.00,,,0.00,0,weatherlink.com 1.10,2013-03-31 08:27:00,
2013-03-31 03:42:00,36.8,36.0,29.80,West,270,9.0,16.0,96,0.00,,,0.00,0,weatherlink.com 1.10,2013-03-31 08:42:00,
2013-03-31 03:57:00,36.9,36.0,29.80,West,261,7.0,10.0,96,0.00,,,0.00,0,weatherlink.com 1.10,2013-03-31 08:57:00,
2013-03-31 04:12:00,36.9,36.0,29.80,WSW,254,8.0,10.0,96,0.00,,,0.00,0,weatherlink.com 1.10,2013-03-31 09:12:00,
2013-03-31 04:27:00,36.7,36.0,29.80,West,261,11.0,13.0,96,0.00,,,0.00,0,weatherlink.com 1.10,2013-03-31 09:27:00,
2013-03-31 04:42:00,36.8,36.0,29.80,West,273,10.0,11.0,97,0.00,,,0.00,0,weatherlink.com 1.10,2013-03-31 09:42:00,
2013-03-31 04:57:00,36.6,36.0,29.80,WSW,257,8.0,10.0,97,0.00,,,0.00,0,weatherlink.com 1.10,2013-03-31 09:57:00,
2013-03-31 05:12:00,36.7,36.0,29.80,WSW,258,9.0,12.0,97,0.00,,,0.00,0,weatherlink.com 1.10,2013-03-31 10:12:00,
2013-03-31 05:27:00,36.8,36.0,29.79,WSW,254,7.0,12.0,97,0.00,,,0.00,0,weatherlink.com 1.10,2013-03-31 10:27:00,
2013-03-31 05:42:00,36.9,36.0,29.79,WSW,252,7.0,10.0,97,0.00,,,0.00,0,weatherlink.com 1.10,2013-03-31 10:42:00,
2013-03-31 05:57:00,37.1,36.0,29.79,WSW,258,7.0,10.0,97,0.00,,,0.00,0,weatherlink.com 1.10,2013-03-31 10:57:00,
2013-03-31 06:12:00,37.2,37.0,29.78,West,262,6.0,12.0,97,0.00,,,0.00,0,weatherlink.com 1.10,2013-03-31 11:12:00,
2013-03-31 06:27:00,37.2,37.0,29.78,WSW,253,8.0,10.0,97,0.00,,,0.00,0,weatherlink.com 1.10,2013-03-31 11:27:00,
2013-03-31 06:42:00,37.3,36.0,29.79,WSW,253,8.0,10.0,96,0.00,,,0.00,0,weatherlink.com 1.10,2013-03-31 11:42:00,
2013-03-31 06:57:00,37.2,36.0,29.78,WSW,250,7.0,9.0,96,0.00,,,0.00,7,weatherlink.com 1.10,2013-03-31 11:57:00,
2013-03-31 07:12:00,37.2,36.0,29.78,WSW,242,6.0,11.0,96,0.00,,,0.00,16,weatherlink.com 1.10,2013-03-31 12:12:00,
2013-03-31 07:27:00,37.3,36.0,29.78,WSW,244,10.0,14.0,96,0.00,,,0.00,30,weatherlink.com 1.10,2013-03-31 12:27:00,
2013-03-31 07:42:00,37.3,36.0,29.77,WSW,242,6.0,11.0,96,0.00,,,0.00,40,weatherlink.com 1.10,2013-03-31 12:42:00,
2013-03-31 07:58:00,37.2,36.0,29.77,WSW,246,7.0,12.0,96,0.00,,,0.00,44,weatherlink.com 1.10,2013-03-31 12:58:00,
2013-03-31 08:13:00,37.2,36.0,29.77,WSW,258,9.0,12.0,96,0.00,,,0.00,69,weatherlink.com 1.10,2013-03-31 13:13:00,
2013-03-31 08:28:00,37.2,36.0,29.77,WSW,239,5.0,12.0,96,0.00,,,0.00,113,weatherlink.com 1.10,2013-03-31 13:28:00,
2013-03-31 08:43:00,37.4,36.0,29.76,WSW,243,11.0,14.0,96,0.00,,,0.00,141,weatherlink.com 1.10,2013-03-31 13:43:00,
2013-03-31 08:58:00,37.4,36.0,29.76,WSW,257,11.0,13.0,95,0.00,,,0.00,137,weatherlink.com 1.10,2013-03-31 13:58:00,
2013-03-31 09:13:00,37.5,37.0,29.76,WSW,242,11.0,13.0,96,0.00,,,0.00,84,weatherlink.com 1.10,2013-03-31 14:13:00,
2013-03-31 09:28:00,37.6,36.0,29.76,West,259,10.0,15.0,95,0.00,,,0.00,121,weatherlink.com 1.10,2013-03-31 14:28:00,
2013-03-31 09:43:00,37.8,37.0,29.76,West,264,8.0,12.0,95,0.00,,,0.00,142,weatherlink.com 1.10,2013-03-31 14:43:00,
2013-03-31 09:58:00,38.0,37.0,29.76,West,268,13.0,13.0,94,0.00,,,0.00,192,weatherlink.com 1.10,2013-03-31 14:58:00,
2013-03-31 10:13:00,37.9,36.0,29.76,WSW,253,13.0,16.0,94,0.00,,,0.00,190,weatherlink.com 1.10,2013-03-31 15:13:00,
2013-03-31 10:28:00,38.0,36.0,29.76,West,273,8.0,16.0,92,0.00,,,0.00,144,weatherlink.com 1.10,2013-03-31 15:28:00,
2013-03-31 10:43:00,38.3,36.0,29.76,West,271,9.0,14.0,92,0.00,,,0.00,383,weatherlink.com 1.10,2013-03-31 15:43:00,
2013-03-31 10:58:00,38.6,36.0,29.76,WSW,244,11.0,15.0,91,0.00,,,0.00,360,weatherlink.com 1.10,2013-03-31 15:58:00,
2013-03-31 11:12:00,39.6,37.0,29.76,WSW,258,9.0,17.0,90,0.00,,,0.00,649,weatherlink.com 1.10,2013-03-31 16:12:00,
2013-03-31 11:27:00,40.6,37.0,29.75,WSW,246,15.0,17.0,88,0.00,,,0.00,561,weatherlink.com 1.10,2013-03-31 16:27:00,
2013-03-31 11:42:00,40.8,38.0,29.75,WSW,257,10.0,15.0,88,0.00,,,0.00,624,weatherlink.com 1.10,2013-03-31 16:42:00,
2013-03-31 11:57:00,41.3,37.0,29.75,WSW,250,12.0,13.0,86,0.00,,,0.00,529,weatherlink.com 1.10,2013-03-31 16:57:00,
2013-03-31 12:12:00,42.2,37.0,29.75,WSW,250,11.0,14.0,83,0.00,,,0.00,791,weatherlink.com 1.10,2013-03-31 17:12:00,
2013-03-31 12:27:00,42.6,37.0,29.75,WSW,257,15.0,19.0,79,0.00,,,0.00,749,weatherlink.com 1.10,2013-03-31 17:27:00,
2013-03-31 12:43:00,42.5,36.0,29.75,WSW,256,13.0,17.0,79,0.00,,,0.00,568,weatherlink.com 1.10,2013-03-31 17:43:00,
2013-03-31 12:57:00,43.0,37.0,29.74,WSW,253,11.0,17.0,79,0.00,,,0.00,613,weatherlink.com 1.10,2013-03-31 17:57:00,
2013-03-31 13:12:00,43.4,36.0,29.74,West,265,10.0,18.0,76,0.00,,,0.00,271,weatherlink.com 1.10,2013-03-31 18:12:00,
2013-03-31 13:28:00,43.6,36.0,29.75,WSW,257,14.0,20.0,75,0.00,,,0.00,359,weatherlink.com 1.10,2013-03-31 18:28:00,
2013-03-31 13:43:00,43.7,36.0,29.75,West,261,15.0,21.0,74,0.00,,,0.00,599,weatherlink.com 1.10,2013-03-31 18:43:00,
2013-03-31 13:58:00,43.8,37.0,29.75,WSW,237,13.0,20.0,77,0.00,,,0.00,468,weatherlink.com 1.10,2013-03-31 18:58:00,
2013-03-31 14:13:00,42.5,36.0,29.76,West,281,15.0,20.0,77,0.00,,,0.00,199,weatherlink.com 1.10,2013-03-31 19:13:00,
2013-03-31 14:28:00,42.1,36.0,29.76,WSW,256,17.0,23.0,79,0.00,,,0.00,271,weatherlink.com 1.10,2013-03-31 19:28:00,
2013-03-31 14:43:00,41.7,35.0,29.76,West,260,18.0,21.0,77,0.00,,,0.00,374,weatherlink.com 1.10,2013-03-31 19:43:00,
2013-03-31 14:58:00,40.6,35.0,29.77,West,262,19.0,22.0,80,0.00,,,0.00,202,weatherlink.com 1.10,2013-03-31 19:58:00,
2013-03-31 15:13:00,39.4,34.0,29.78,West,265,15.0,21.0,81,0.00,,,0.00,123,weatherlink.com 1.10,2013-03-31 20:13:00,
2013-03-31 15:28:00,38.9,34.0,29.78,West,278,13.0,21.0,83,0.00,,,0.00,225,weatherlink.com 1.10,2013-03-31 20:28:00,
2013-03-31 15:43:00,38.5,34.0,29.78,West,266,7.0,21.0,84,0.00,,,0.00,299,weatherlink.com 1.10,2013-03-31 20:43:00,
2013-03-31 15:58:00,38.5,34.0,29.78,West,265,13.0,19.0,84,0.00,,,0.00,169,weatherlink.com 1.10,2013-03-31 20:58:00,
2013-03-31 16:13:00,38.2,34.0,29.79,West,273,14.0,17.0,84,0.00,,,0.00,225,weatherlink.com 1.10,2013-03-31 21:13:00,
2013-03-31 16:43:00,39.2,34.0,29.78,WNW,288,14.0,20.0,82,0.00,,,0.00,496,weatherlink.com 1.10,2013-03-31 21:43:00,
2013-03-31 16:58:00,39.2,34.0,29.79,West,263,12.0,19.0,82,0.00,,,0.00,434,weatherlink.com 1.10,2013-03-31 21:58:00,
2013-03-31 17:13:00,39.3,34.0,29.79,West,267,14.0,19.0,80,0.00,,,0.00,376,weatherlink.com 1.10,2013-03-31 22:13:00,
2013-03-31 17:43:00,37.9,33.0,29.80,West,271,11.0,22.0,82,0.00,,,0.00,12,weatherlink.com 1.10,2013-03-31 22:43:00,
2013-03-31 17:58:00,36.6,33.0,29.81,West,273,8.0,16.0,86,0.00,,,0.00,35,weatherlink.com 1.10,2013-03-31 22:58:00,
2013-03-31 18:13:00,36.4,33.0,29.81,WSW,253,14.0,16.0,87,0.00,,,0.00,35,weatherlink.com 1.10,2013-03-31 23:13:00,
2013-03-31 18:28:00,36.0,33.0,29.82,West,267,11.0,17.0,88,0.00,,,0.00,74,weatherlink.com 1.10,2013-03-31 23:28:00,
2013-03-31 18:43:00,36.0,33.0,29.82,West,279,7.0,14.0,87,0.00,,,0.00,58,weatherlink.com 1.10,2013-03-31 23:43:00,
2013-03-31 18:58:00,35.6,32.0,29.83,WNW,282,11.0,13.0,88,0.00,,,0.00,7,weatherlink.com 1.10,2013-03-31 23:58:00,
2013-03-31 19:13:00,34.8,32.0,29.83,WNW,283,11.0,21.0,88,0.00,,,0.00,0,weatherlink.com 1.10,2013-04-01 00:13:00,
2013-03-31 19:28:00,33.9,31.0,29.84,West,266,7.0,10.0,89,0.00,,,0.00,0,weatherlink.com 1.10,2013-04-01 00:28:00,
2013-03-31 19:43:00,34.3,31.0,29.85,West,269,6.0,11.0,86,0.00,,,0.00,0,weatherlink.com 1.10,2013-04-01 00:43:00,
2013-03-31 19:58:00,34.0,31.0,29.86,West,265,4.0,8.0,87,0.00,,,0.00,0,weatherlink.com 1.10,2013-04-01 00:58:00,
2013-03-31 20:28:00,34.3,29.0,29.87,WNW,294,8.0,10.0,82,0.00,,,0.00,0,weatherlink.com 1.10,2013-04-01 01:28:00,
2013-03-31 20:43:00,34.9,25.0,29.88,NW,310,7.0,14.0,67,0.00,,,0.00,0,weatherlink.com 1.10,2013-04-01 01:43:00,
2013-03-31 20:58:00,34.5,24.0,29.89,WNW,299,7.0,13.0,66,0.00,,,0.00,0,weatherlink.com 1.10,2013-04-01 01:58:00,
2013-03-31 21:14:00,34.0,24.0,29.89,WNW,288,8.0,10.0,67,0.00,,,0.00,0,weatherlink.com 1.10,2013-04-01 02:14:00,
2013-03-31 21:29:00,33.8,23.0,29.90,NW,309,6.0,11.0,66,0.00,,,0.00,0,weatherlink.com 1.10,2013-04-01 02:29:00,
2013-03-31 21:44:00,33.6,23.0,29.91,NW,315,9.0,13.0,65,0.00,,,0.00,0,weatherlink.com 1.10,2013-04-01 02:44:00,
2013-03-31 21:59:00,33.5,23.0,29.91,WNW,300,9.0,13.0,65,0.00,,,0.00,0,weatherlink.com 1.10,2013-04-01 02:59:00,
2013-03-31 22:14:00,33.2,23.0,29.92,WNW,300,3.0,11.0,66,0.00,,,0.00,0,weatherlink.com 1.10,2013-04-01 03:14:00,
2013-03-31 22:29:00,32.9,22.0,29.92,NW,312,4.0,11.0,65,0.00,,,0.00,0,weatherlink.com 1.10,2013-04-01 03:29:00,
2013-03-31 22:44:00,32.6,23.0,29.93,NNW,331,6.0,10.0,67,0.00,,,0.00,0,weatherlink.com 1.10,2013-04-01 03:44:00,
2013-03-31 22:59:00,32.3,23.0,29.93,WNW,293,3.0,9.0,69,0.00,,,0.00,0,weatherlink.com 1.10,2013-04-01 03:59:00,
2013-03-31 23:14:00,31.6,24.0,29.93,North,355,3.0,7.0,72,0.00,,,0.00,0,weatherlink.com 1.10,2013-04-01 04:14:00,
2013-03-31 23:29:00,31.2,23.0,29.94,NW,305,2.0,5.0,73,0.00,,,0.00,0,weatherlink.com 1.10,2013-04-01 04:29:00,
2013-03-31 23:44:00,31.1,23.0,29.95,NW,326,3.0,5.0,73,0.00,,,0.00,0,weatherlink.com 1.10,2013-04-01 04:44:00,
2013-03-31 23:59:00,31.4,24.0,29.95,NNW,329,3.0,8.0,73,0.00,,,0.00,0,weatherlink.com 1.10,2013-04-01 04:59:00,